Regional Weather Roundup
Issued by NWS Sterling, VA

Home | Current Version | Previous Version | Text Only | Print | Product List | Glossary Off
Versions: 1 2 3 4 5 6 7 8 9 10 11 12 13 14 15 16 17 18 19 20 21 22 23 24 25 26 27

000
ASUS41 KLWX 152010
RWRLWX

REGIONAL WEATHER ROUNDUP
NATIONAL WEATHER SERVICE BALTIMORE MD/WASHINGTON DC
300 PM EST SUN JAN 15 2017

Note: "FAIR" indicates few or no clouds below 12,000 feet
with no significant weather and/or obstructions to visibility.
 TC=TEMPERATURE CELSIUS

 * =Non NWS site. Station does not report precipitation (e.g. rain,
    snow, etc.), thunder, or fog.

DCZ001-MDZ009-015-VAZ040>042-051-053>054-152100-
WASHINGTON METRO

CITY           SKY/WX    TMP DP  RH WIND       PRES   REMARKS
WASHINGTON NAT PTSUNNY   48  17  29 NE6       30.36S
DULLES         PTSUNNY   44  17  33 N8        30.35F
ANDREWS AFB    MOSUNNY   44  19  36 N3        30.34S
FT BELVOIR     MOSUNNY   49  16  27 W6        30.35S
QUANTICO       SUNNY     45  32  60 E10       30.37S
COLLEGE PARK*  SUNNY     43  14  31 CALM      30.36S
LEESBURG*      CLOUDY    45  25  45 MISG      30.36S
MANASSAS*      SUNNY    N/A N/A N/A NE6       30.36
GAITHERSBURG*  MOSUNNY   41  18  38 N3        30.39S

$$

MDZ006>007-011-014-152100-
BALTIMORE METRO

CITY           SKY/WX    TMP DP  RH WIND       PRES   REMARKS
BWI AIRPORT    PTSUNNY   42  27  55 CALM      30.36S
MD SCIENCE CTR   N/A     43  22  43 MISG      30.36F
MARTIN STATE   PTSUNNY   43  28  56 NW6       30.38F
ANNAPOLIS      SUNNY     45  27  49 CALM      30.36S
FORT MEADE*    MOSUNNY   43  25  49 CALM      30.39R

$$

MDZ012-015-019>023-152100-
MARYLAND EASTERN SHORE

CITY           SKY/WX    TMP DP  RH WIND       PRES   REMARKS
OCEAN CITY     SUNNY     44  27  51 NE6       30.35F
SALISBURY      SUNNY     44  27  51 NW3       30.35S
BAY BRIDGE AP* SUNNY     41  25  52 N3        30.37S
CAMBRIDGE*     SUNNY     41  28  60 CALM      30.36S
EASTON*        PTSUNNY   45  28  53 W5        30.39F

$$

MDZ017>025-152100-
SOUTHERN MARYLAND

CITY           SKY/WX    TMP DP  RH WIND       PRES   REMARKS
PATUXENT RIVER PTSUNNY   42  25  50 N9        30.37S
ST INIGOES     NOT AVBL
LEONARDTOWN*   SUNNY     41  23  48 E3        30.39R

$$

MDZ003>005-152100-
NORTH CENTRAL MARYLAND

CITY           SKY/WX    TMP DP  RH WIND       PRES   REMARKS
FREDERICK*     SUNNY     41  23  48 CALM      30.39S
HAGERSTOWN APT CLOUDY    39  20  46 CALM      30.34F
WESTMINSTER*   MOSUNNY   37  19  48 N5        30.33S

$$

MDZ501>502-152100-
WESTERN MARYLAND

CITY           SKY/WX    TMP DP  RH WIND       PRES   REMARKS
OAKLAND*         N/A     32  30  93 CALM      30.26S
CUMBERLAND*    CLOUDY    41  30  65 N5        30.37S

$$

VAZ025>031-152100-
SHENANDOAH VALLEY

CITY           SKY/WX    TMP DP  RH WIND       PRES   REMARKS
WINCHESTER*    CLOUDY    41  23  48 CALM      30.33S
FRONT ROYAL*   NOT AVBL
LURAY*         MOCLDY    45  37  76 N3        30.31S
NEW MARKET*    CLOUDY    46  34  64 NE3       30.30S
STAUNTON*      CLOUDY    45  38  77 E3        30.31S
WAYNESBORO*    FAIR      46  39  78 E5        30.29S

$$

WVZ021-048>050-054>055-152100-
EASTERN WEST VIRGINIA PANHANDLE

CITY           SKY/WX    TMP DP  RH WIND       PRES   REMARKS
MARTINSBURG    CLOUDY    40  21  46 N7        30.34F
PETERSBURG*    CLOUDY    44  37  77 CALM      30.33R

$$

VAZ036>039-050-152100-
CENTRAL FOOTHILLS

CITY           SKY/WX    TMP DP  RH WIND       PRES   REMARKS
CHARLOTTESVILL CLOUDY    44  38  79 CALM      30.34R
CULPEPER*      CLOUDY    48  32  54 NE5       30.36R
ORANGE*          N/A     45  37  76 CALM      30.36S
GORDONSVILLE*  CLOUDY    44  37  77 CALM      30.34S
WARRENTON*     PTSUNNY   47  24  39 NE6       30.35R

$$

VAZ055>057-152100-
NORTH AND CENTRAL PIEDMONT

CITY           SKY/WX    TMP DP  RH WIND       PRES   REMARKS
FREDERICKSBRG* SUNNY     48  31  51 CALM      30.35R
STAFFORD*      SUNNY     47  28  47 E3        30.39S

$$

NCZ024-NYZ072-PAZ021-071-VAZ022-071-152100-
OTHER REGIONAL OBSERVATIONS

CITY           SKY/WX    TMP DP  RH WIND       PRES   REMARKS
NEW YORK CITY  SUNNY     38  20  48 W7        30.34S
PHILADELPHIA   PTSUNNY   41  21  44 NW10G17   30.35S
PITTSBURGH     PTSUNNY   33  22  63 S3        30.35F
ROANOKE        CLOUDY    51  42  71 SE7       30.29S
RICHMOND       MOSUNNY   49  27  42 N8        30.34F
RALEIGH        PTSUNNY   57  41  55 VRB6      30.30F

$$

ANZ530>537-152100-
MARINE OBSERVATIONS

STATION/POSITION TIME  TEMP    WIND        PRES
                       AIR SEA DIR/SP/G
                 (UTC) (F)     (DEG/KT/KT) (MB)
THOMAS PT LIGHT  2000   38 38   50/ 10/ 11   N/A
BALT KEY BRIDGE  1948   39     250/  4/  5 1028.3S
COVE POINT       1948   37     350/  4/  5 1029.1F
LEWISETTA        1948   42 42   40/  4/  6 1028.0R
SOLOMONS ISLAND  1942   41 41   10/  5/  8   N/A
PINEY POINT      1948           50/  2/  3   N/A

$$





USA.gov is the U.S. government's official web portal to all federal, state and local government web resources and services.